Paducah, KY

3:34 PM CDT on March 29, 2017 (GMT -0500)
Barkley Regional

Weather History for KPAH - April, 2013

Change the Weather History Date:

Wednesday, April 3, 2013

  Actual Average Record
Temperature  
Mean Temperature 41 °F 54 °F  
Max Temperature 53 °F 65 °F 84 °F (1986)
Min Temperature 29 °F 43 °F 24 °F (1987)
Degree Days  
Heating Degree Days 24 12  
Month to date heating degree days 67 36  
Since 1 July heating degree days 3893 3855  
Cooling Degree Days 0 1  
Month to date cooling degree days 0 3  
Year to date cooling degree days 0 10  
Moisture  
Dew Point 22 °F    
Average Humidity 49    
Maximum Humidity 70    
Minimum Humidity 28    
Precipitation  
Precipitation 0.00 in 0.14 in 3.51 in (2008)
Month to date precipitation 0.00 0.44  
Year to date precipitation 15.77 11.96  
Snow  
Snow 0.00 in 0.00 in - ()
Month to date snowfall 0.0 0.0  
Since 1 July snowfall 6.8 9.1  
Snow Depth 0.00 in    
Sea Level Pressure  
Sea Level Pressure 30.28 in    
Wind  
Wind Speed 9 mph (ENE)    
Max Wind Speed 18 mph    
Max Gust Speed 25 mph    
Visibility 10 miles    
Events      
T = Trace of Precipitation, MM = Missing Value Source: NWS Daily Summary

Daily Weather History Graph

Daily Weather History Graph

Search for Another Location

Airport or City:

Trip Planner

Search our weather history database for the weather conditions in past years. The results will help you decide how hot, cold, wet, or windy it might be!

Date:

Astronomy

Apr. 03, 2013 Rise Set
Actual Time 6:37 AM CDT 7:19 PM CDT
Civil Twilight 6:11 AM CDT 7:45 PM CDT
Nautical Twilight 5:40 AM CDT 8:16 PM CDT
Astronomical Twilight 5:08 AM CDT 8:48 PM CDT
Moon 2:09 AM CDT (4/3) 12:40 PM CDT (4/3)
Length of Visible Light 13h 34m
Length of Day
12h 42m
Last Quarter, 44% of the Moon is Illuminated
Apr 3
Last Quarter
Apr 10
New
Apr 18
First Quarter
Apr 25
Full
May 2
Last Quarter

Hourly Weather History & Observations

Time (CDT) Temp. Windchill Dew Point Humidity Pressure Visibility Wind Dir Wind Speed Gust Speed Precip Events Conditions
12:53 AM 36.0 °F 31.1 °F 21.0 °F 55% 30.29 in 10.0 mi NNE 5.8 mph - N/A   Clear
1:53 AM 36.0 °F 33.3 °F 21.0 °F 55% 30.28 in 10.0 mi NE 3.5 mph - N/A   Clear
2:53 AM 35.1 °F - 21.0 °F 57% 30.28 in 10.0 mi Calm Calm - N/A   Clear
3:53 AM 33.1 °F - 23.0 °F 66% 30.26 in 10.0 mi Calm Calm - N/A   Clear
4:53 AM 34.0 °F - 21.9 °F 61% 30.25 in 10.0 mi Calm Calm - N/A   Clear
5:53 AM 34.0 °F 31.0 °F 21.9 °F 61% 30.29 in 10.0 mi East 3.5 mph - N/A   Clear
6:53 AM 33.1 °F 30.0 °F 23.0 °F 66% 30.34 in 10.0 mi NNE 3.5 mph - N/A   Clear
7:53 AM 36.0 °F 32.1 °F 26.1 °F 67% 30.36 in 10.0 mi East 4.6 mph - N/A   Clear
8:53 AM 41.0 °F 35.8 °F 25.0 °F 53% 30.34 in 10.0 mi ENE 8.1 mph - N/A   Clear
9:53 AM 45.0 °F 39.7 °F 21.9 °F 40% 30.33 in 10.0 mi East 10.4 mph - N/A   Clear
10:53 AM 48.0 °F - 19.0 °F 32% 30.33 in 10.0 mi NE 15.0 mph 21.9 mph N/A   Clear
11:53 AM 50.0 °F - 19.0 °F 29% 30.31 in 10.0 mi NE 15.0 mph 24.2 mph N/A   Clear
12:53 PM 51.1 °F - 19.9 °F 29% 30.30 in 10.0 mi NE 18.4 mph 25.3 mph N/A   Clear
1:53 PM 52.0 °F - 21.0 °F 30% 30.29 in 10.0 mi East 13.8 mph 17.3 mph N/A   Clear
2:53 PM 52.0 °F - 21.9 °F 31% 30.27 in 10.0 mi East 16.1 mph 20.7 mph N/A   Clear
3:53 PM 53.1 °F - 23.0 °F 31% 30.26 in 10.0 mi East 16.1 mph 19.6 mph N/A   Clear
4:53 PM 52.0 °F - 21.9 °F 31% 30.23 in 10.0 mi East 15.0 mph 20.7 mph N/A   Clear
5:53 PM 51.1 °F - 21.0 °F 31% 30.24 in 10.0 mi ENE 10.4 mph 19.6 mph N/A   Clear
6:53 PM 48.9 °F - 23.0 °F 36% 30.23 in 10.0 mi NE 9.2 mph - N/A   Clear
7:53 PM 48.0 °F - 23.0 °F 37% 30.22 in 10.0 mi NE 8.1 mph - N/A   Clear
8:53 PM 46.0 °F 41.4 °F 24.1 °F 42% 30.23 in 10.0 mi NE 9.2 mph - N/A   Clear
9:53 PM 46.9 °F - 21.9 °F 37% 30.24 in 10.0 mi ENE 6.9 mph - N/A   Clear
10:53 PM 46.0 °F 41.0 °F 21.9 °F 39% 30.21 in 10.0 mi ENE 10.4 mph - N/A   Clear
11:53 PM 45.0 °F 40.1 °F 23.0 °F 42% 30.20 in 10.0 mi ENE 9.2 mph - N/A   Clear